DELTA 1 R/B

基本信息
目录编号:
4322
目录名称:
DELTA 1 R/B
国际标识:
1970-008C
轨道中心:
EARTH
物体状态:
在轨
发射日期:
1970-01-23 UTC
国别:
美国 (US)
轨道信息
数据来源: 国际轨道数据
星历时间: 2026-07-14T07:37:32+0800
半长轴: 7834.57km
偏心率: 0.0027641
轨道倾角: 101.333°
近地点辐角: 242.305°
升交点赤经: 196.376°
平近点角: 172.934°
近地点: 1434.777km
远地点: 1478.089km
周期: 115.022分钟
每日圈数: 12.519301
详细信息
发射场:
AFWTR
轨道高度:
LEO
数据来源:
AOE Integration Group
参考系:
TEME
时间系统:
UTC
历元类型:
SGP4
2D轨道图
3D轨道图
轨道高度分析图
轨道倾角分析图
轨道综合分析图
查看轨道综合分析图